FW3892 Weather Reports


time (UTC)temp
C
wind
direction
speed
KPH
gust
KPH
rain 1hr
cm
rain 24hr
cm
rain mn
cm
humidity
%
barometer
mb
20260506211546 15 201 1.6 9.7 0.05 0.08 0.08 90 1007.0
20260506210044 15 244 1.6 8.0 0.05 0.05 0.05 88 1007.1
20260506204544 16 229 3.2 19.3 0.03 0.03 0.03 86 1007.2
20260506203046 16 127 3.2 17.7 0.03 0.03 0.03 84 1007.3
20260506201543 16 202 4.8 14.5 0.03 0.03 0.03 81 1007.3
20260506200042 17 263 6.4 12.9 0.00 0.00 0.00 79 1007.3
20260506194556 17 202 3.2 9.7 0.00 0.00 0.00 74 1007.3
20260506193140 18 107 1.6 11.3 0.00 0.00 0.00 72 1007.5
20260506191538 18 245 3.2 16.1 0.00 0.00 0.00 66 1007.6
20260506190042 18 233 1.6 9.7 0.00 0.00 0.00 64 1007.5
20260506184538 19 221 4.8 16.1 0.00 0.00 0.00 63 1007.6
20260506183036 19 196 6.4 14.5 0.00 0.00 0.00 61 1007.6
20260506181539 20 251 3.2 11.3 0.00 0.00 0.00 61 1007.7
20260506180042 20 162 3.2 14.5 0.00 0.00 0.00 59 1008.0
20260506174536 21 241 4.8 17.7 0.00 0.00 0.00 57 1008.2
20260506173034 21 242 4.8 16.1 0.00 0.00 0.00 58 1008.5
20260506171549 20 233 6.4 14.5 0.00 0.00 0.00 59 1008.2
20260506170038 20 177 3.2 11.3 0.00 0.00 0.00 60 1008.2
20260506164534 20 120 1.6 12.9 0.00 0.00 0.00 59 1008.6
20260506163036 20 289 3.2 17.7 0.00 0.00 0.00 58 1008.8
20260506161531 21 161 3.2 8.0 0.00 0.00 0.00 57 1009.0
20260506160032 21 106 3.2 11.3 0.00 0.00 0.00 58 1009.2
20260506154529 21 198 4.8 17.7 0.00 0.00 0.00 56 1009.4
20260506153028 21 272 1.6 16.1 0.00 0.00 0.00 58 1009.7
20260506151534 21 252 4.8 16.1 0.00 0.00 0.00 57 1009.9
20260506150028 21 153 6.4 19.3 0.00 0.00 0.00 57 1009.8
20260506144526 21 329 3.2 17.7 0.00 0.00 0.00 57 1009.7
20260506143024 20 198 6.4 14.5 0.00 0.00 0.00 58 1009.6
20260506141522 20 258 3.2 9.7 0.00 0.00 0.00 60 1009.6
20260506140026 20 193 1.6 11.3 0.00 0.00 0.00 62 1009.7
20260506134520 20 152 1.6 14.5 0.00 0.00 0.00 62 1009.9
20260506133033 18 18 4.8 12.9 0.00 0.00 0.00 65 1010.3
20260506131517 18 267 4.8 9.7 0.00 0.00 0.00 67 1010.3
20260506130011 17 210 4.8 9.7 0.00 0.00 0.00 70 1010.3
20260506124508 17 162 4.8 11.3 0.00 0.00 0.00 73 1010.5
20260506123006 16 242 1.6 11.3 0.00 0.00 0.00 75 1010.3
20260506121504 16 169 4.8 12.9 0.00 0.00 0.00 77 1010.1
20260506120003 15 140 1.6 4.8 0.00 0.00 0.00 79 1010.7
20260506114501 15 81 4.8 11.3 0.00 0.00 0.00 80 1010.9
20260506113102 15 287 1.6 8.0 0.00 0.00 0.00 82 1010.9
20260506111607 15 178 0.0 8.0 0.00 0.00 0.00 84 1010.7
20260506110101 14 202 0.0 6.4 0.00 0.00 0.00 85 1010.8
20260506104601 14 104 0.0 4.8 0.00 0.00 0.00 85 1010.8
20260506103102 14 205 1.6 8.0 0.00 0.00 0.00 84 1010.7
20260506101558 14 173 1.6 4.8 0.00 0.00 0.00 84 1010.7
20260506100101 13 223 3.2 11.3 0.00 0.00 0.00 84 1010.6
20260506094556 14 218 0.0 6.4 0.00 0.00 0.00 83 1010.5
20260506093055 14 247 1.6 6.4 0.00 0.00 0.00 83 1010.5
20260506091600 14 202 1.6 8.0 0.00 0.00 0.00 83 1010.5
20260506090053 14 177 1.6 8.0 0.00 0.00 0.00 83 1010.6
20260506084555 14 155 1.6 11.3 0.00 0.00 0.00 82 1010.7
20260506083052 14 291 1.6 8.0 0.00 0.00 0.00 80 1010.7
20260506081552 15 179 0.0 6.4 0.00 0.00 0.00 79 1010.7
20260506073048 15 211 1.6 6.4 0.00 0.00 0.00 78 1010.6
20260506071546 15 202 1.6 9.7 0.00 0.00 0.00 77 1010.6
20260506061543 15 227 3.2 8.0 0.00 0.00 0.00 74 1010.5
20260506050138 15 289 1.6 8.0 0.00 0.00 0.00 71 1010.8
20260506044537 15 208 1.6 9.7 0.00 0.00 0.00 70 1010.9
20260506043036 15 321 1.6 9.7 0.00 0.00 0.00 69 1011.1
20260506041533 15 236 1.6 4.8 0.00 0.00 0.00 68 1011.0
20260506040038 15 240 3.2 11.3 0.00 0.00 0.00 68 1010.9
20260506034531 15 288 0.0 11.3 0.00 0.00 0.00 67 1011.0
20260506033034 15 208 1.6 9.7 0.00 0.00 0.00 67 1010.8
20260506031531 15 133 1.6 9.7 0.00 0.00 0.00 66 1010.7
20260506030030 15 287 1.6 9.7 0.00 0.00 0.00 65 1010.7
20260506024531 16 178 1.6 9.7 0.00 0.00 0.00 64 1010.7
20260506023031 16 170 3.2 11.3 0.00 0.00 0.00 64 1010.7
20260506021533 16 215 3.2 9.7 0.00 0.00 0.00 64 1010.6
20260506020033 15 187 1.6 6.4 0.00 0.00 0.00 64 1010.7
20260506014528 15 204 0.0 12.9 0.00 0.00 0.00 64 1010.7
20260506013027 15 175 1.6 9.7 0.00 0.00 0.00 64 1010.6
20260506011530 15 306 0.0 4.8 0.00 0.00 0.00 65 1010.5
20260506010043 15 171 0.0 4.8 0.00 0.00 0.00 64 1010.3
20260506004527 15 5 1.6 6.4 0.00 0.00 0.00 65 1010.2
20260506003026 15 224 1.6 4.8 0.00 0.00 0.00 65 1010.0
20260506001526 16 248 0.0 4.8 0.00 0.00 0.00 65 1009.7
20260506000044 16 272 1.6 9.7 0.00 0.00 0.00 64 1009.5
20260505234603 16 254 1.6 6.4 0.00 0.00 0.00 63 1009.1
20260505233043 17 296 3.2 11.3 0.00 0.00 0.00 61 1009.0
20260505231543 17 196 3.2 8.0 0.00 0.00 0.00 59 1008.8
20260505230042 18 210 1.6 8.0 0.00 0.00 0.00 57 1008.6
20260505224542 18 137 3.2 12.9 0.00 0.00 0.00 54 1008.0
20260505223042 19 214 4.8 12.9 0.00 0.00 0.00 52 1008.0
20260505221542 20 263 3.2 11.3 0.00 0.00 0.00 51 1008.1
20260505220041 20 144 4.8 11.3 0.00 0.00 0.00 50 1008.0
20260505214559 21 181 4.8 12.9 0.00 0.00 0.00 48 1007.7
20260505213037 21 291 3.2 12.9 0.00 0.00 0.00 47 1007.6